This demonstration page uses our WeatherBlox Daily Observations layout. Learn more.

Left ArrowRight Arrow

41.12389, -100.76542

Hourly Observations for September 19, 2016

Temp ( °F °C ) Dew Point ( °F °C ) Humidity (%) Winds ( mph kmh ) Pressure ( in mb ) Visibility ( mi km ) Precip ( " mm )
12:53 am 00:53 Clear 56 13.3 47 8.3 72 72 Calm 29.83 1010 10 16 0.00 0.00
1:53 am 01:53 Clear 52 11.1 46 7.8 80 80 Calm 29.83 1010 10 16 0.00 0.00
2:53 am 02:53 Clear 50 10 45 7.2 83 83 Calm 29.84 1011 10 16 0.00 0.00
3:53 am 03:53 Clear 50 10 45 7.2 83 83 WNW 3 6 29.85 1011 10 16 0.00 0.00
4:53 am 04:53 Clear 49 9.4 44 6.7 83 83 NNW 7 11 29.87 1012 10 16 0.00 0.00
5:53 am 05:53 Clear 49 9.4 44 6.7 83 83 NW 6 9 29.89 1012 10 16 0.00 0.00
6:53 am 06:53 Clear 48 8.9 43 6.1 83 83 WNW 7 11 29.94 1014 10 16 0.00 0.00
7:53 am 07:53 Sunny 50 10 45 7.2 83 83 NW 8 13 30.01 1016 10 16 0.00 0.00
8:53 am 08:53 Sunny 64 17.8 48 8.9 56 56 NNE 8 13 30.04 1017 10 16 0.00 0.00
9:53 am 09:53 Sunny 70 21.1 45 7.2 41 41 ENE 14 22 30.06 1018 10 16 0.00 0.00
10:53 am 10:53 Sunny 75 23.9 45 7.2 34 34 ENE 13 20 30.06 1018 10 16 0.00 0.00
11:53 am 11:53 Sunny 79 26.1 46 7.8 31 31 E 10 17 30.06 1018 10 16 0.00 0.00
12:53 pm 12:53 Sunny 82 27.8 47 8.3 29 29 ESE 9 15 30.05 1018 10 16 0.00 0.00
1:53 pm 13:53 Sunny 83 28.3 49 9.4 31 31 SE 7 11 30.04 1017 10 16 0.00 0.00
2:53 pm 14:53 Sunny 86 30 49 9.4 28 28 SE 8 13 30.02 1017 10 16 0.00 0.00
3:53 pm 15:53 Sunny 87 30.6 50 10 28 28 SE 9 15 30.00 1016 10 16 0.00 0.00
4:53 pm 16:53 Sunny 87 30.6 48 8.9 26 26 SE 7 11 29.99 1016 10 16 0.00 0.00
5:53 pm 17:53 Sunny 86 30 51 10.6 30 30 ESE 13 20 29.98 1015 10 16 0.00 0.00
6:53 pm 18:53 Sunny 80 26.7 53 11.7 39 39 ESE 10 17 30.00 1016 10 16 0.00 0.00
7:53 pm 19:53 Clear 70 21.1 53 11.7 55 55 ESE 9 15 30.03 1017 10 16 0.00 0.00
8:53 pm 20:53 Clear 63 17.2 52 11.1 68 68 E 8 13 30.04 1017 10 16 0.00 0.00
9:53 pm 21:53 Clear 61 16.1 52 11.1 72 72 E 8 13 30.04 1017 10 16 0.00 0.00
10:53 pm 22:53 Clear 59 15 52 11.1 78 78 ESE 8 13 30.04 1017 10 16 0.00 0.00
11:53 pm 23:53 Clear 58 14.4 52 11.1 81 81 E 9 15 30.03 1017 10 16 0.00 0.00

Powered by AerisWeather